Location: Newark
(46.7000°N, 60.6000°W)
Time: 21:37:19
(UTC+00:00)

Vanguard 1 Rocket - Pass Details

Date: 31 October 2020
Orbit: 656 x 4221 km, 34.3° (Epoch: 30 November)

Event Time Altitude Azimuth Distance (km) Brightness Sun altitude
Rises 18:02:31 0° 250° (WSW) 2,985 11.0 21.6°
Reaches altitude 10° 18:06:24 10° 214° (SSW) 2,242 11.7 21.2°
Maximum altitude 18:07:57 11° 195° (SSW) 2,262 10.9 21.1°
Drops below altitude 10° 18:09:40 10° 177° (S) 2,506 10.6 20.9°
Sets 18:14:58 0° 145° (SE) 4,049 10.9 20.3°
